map of OMS home
Great Circle Mapper logo
OMS - Airport
Location
City:  Omsk, Russian Federation (Russia)
Name:Tsentralny
ICAO / IATA:UNOO / OMS

Details
Type:Airport (Aerodrome, Airfield)
Use:Public/Civil
Latitude:5458'01"N (54.967042)
Longitude:7318'38"E (73.310514)
Datum:WGS 1984
Elevation:311 ft (95 m)
Runways:3
Longest:9435 × 235 ft (2876 × 71.5 m)

Time
Time Zone:UTC+6 (DST+7)

Weather
METAR:UNOO 202030Z 31014G18MPS 0400 R25/0800V1100U +SHSN BLSN VV006 M02/M02 Q0990 25591032 TEMPO 30017MPS 0200 +SHSN BLSN VV002 RMK QBB180 OBST OBSC QFE734
TAF:UNOO 201954Z 2021/2121 31010MPS 0800 +SHSN BLSN BKN005 BKN020CB 650050 530002 TM00/2021Z
TEMPO 2021/2103 31017MPS 0200 +SHSN BLSN VV002
BECMG 2103/2104 1500 SHSN BLSN
TEMPO 2103/2112 29017MPS 0400 +SHSN BLSN VV003

Related Locations
Nearby:
Farthest:PNT: 11019 mi / 17733 km
Puerto Natales [Teniente Julio Gallardo], MA, CL

Find:

   beyond  
but within

Other Information
Maps:
NOTAMs:
Links:
Sources:

  
flag of Russian Federation (Russia)   

Sectional Chart

Flight Planning
at skyvector.com

Satellite Image

Google Maps Satellite View

 

Copyright © 2004-2014 Karl L. Swartz. All rights reserved.
The Great Circle Mapper name and logo are trademarks of the Great Circle Mapper.
All other trademarks mentioned herein belong to their respective owners.
Please see credits for attibutions and further copyright information.

  Follow gcmap on Facebook Follow gcmap on Twitter

hCard Microformat

Geo Microformat